カタログに戻る

FALCON 9 DEB

運用中VLEO
NORAD 48609·DEBRIS·🇺🇸 United States

打ち上げ May 15, 2021 から Cape Canaveral Space Force Station

Loading…

次のパス (今後24時間)

TLE

最新Source: Space-Track

元期: Sep 14, 2026, 10:22 UTC

1 48609U 21041BJ  26257.43218506  .00003070  00000-0  18786-3 0  9999
2 48609  53.0294  44.0755 0009792  39.3985 320.7717 15.13159473293001

AllMySatでFALCON 9 DEBをリアルタイム追跡

Download on the App Store